Location: Caltech
(34.1382°N, 118.1253°W)
Time: 22:27:01
(UTC-07:00)

Iridium 65 - Visible Passes

Search period start: 28 April 2017 00:00
Search period end: 08 May 2017 00:00
Orbit: 776 x 779 km, 86.4° (Epoch: 27 April)

Date Brightness Start Highest point End Pass type
(mag) Time Alt. Az. Time Alt. Az. Time Alt. Az.
28 Apr 8.3 01:33:06 11° ENE 01:33:06 11° ENE 01:33:25 10° NE visible
28 Apr 6.7 03:13:34 35° NNW 03:13:34 35° NNW 03:16:40 10° N visible
29 Apr 6.9 02:40:13 35° NNE 02:40:13 35° NNE 02:43:12 10° N visible
30 Apr 7.5 02:06:49 25° NE 02:06:49 25° NE 02:09:19 10° NNE visible
30 Apr 7.4 03:47:17 17° NW 03:47:17 17° NW 03:49:15 10° NNW visible
01 May 8.1 01:33:26 15° NE 01:33:26 15° NE 01:34:51 10° NE visible
01 May 7.0 03:13:54 27° NW 03:13:54 27° NW 03:16:33 10° NNW visible
02 May 7.0 02:40:31 33° N 02:40:31 33° N 02:43:19 10° N visible
03 May 7.3 02:07:06 28° NNE 02:07:06 28° NNE 02:09:41 10° NNE visible
03 May 7.7 03:47:34 12° NW 03:47:34 12° NW 03:48:19 10° NW visible
04 May 7.8 01:33:41 19° NE 01:33:41 19° NE 01:35:36 10° NNE visible
04 May 7.4 03:14:09 20° NW 03:14:09 20° NW 03:16:14 10° NNW visible
05 May 8.3 01:00:16 11° NE 01:00:16 11° NE 01:00:42 10° NE visible
05 May 7.1 02:40:44 28° NNW 02:40:44 28° NNW 02:43:17 10° N visible
06 May 7.2 02:07:18 30° N 02:07:18 30° N 02:09:53 10° N visible
07 May 7.6 01:33:52 24° NNE 01:33:52 24° NNE 01:36:06 10° NNE visible
07 May 7.7 03:14:20 14° NW 03:14:20 14° NW 03:15:39 10° NW visible
